This is the latest recevied weather packets stored in our database for station/object KA1GJU-3. If no packets are shown the sender has not sent any weather packets the latest 1 day(s).
| Time | Temp. | Humidity | Pressure | Rain* | Wind** | Luminosity | Snow |
|---|---|---|---|---|---|---|---|
| 1777978458 | 14.44° C | 100% | 0 hPa | 0 mm | 1.34 m/s, 281° | - | - |
| 1777977858 | 13.89° C | 100% | 0 hPa | 0 mm | 2.24 m/s, 210° | - | - |
| 1777977258 | 13.33° C | 100% | 0 hPa | 0 mm | 2.24 m/s, 241° | - | - |
| 1777976658 | 12.78° C | 100% | 0 hPa | 0 mm | 2.68 m/s, 244° | - | - |
| 1777976059 | 12.22° C | 100% | 0 hPa | 0 mm | 2.24 m/s, 237° | - | - |
| 1777975458 | 12.22° C | 100% | 0 hPa | 0 mm | 2.24 m/s, 237° | - | - |
| 1777974858 | 11.67° C | 100% | 0 hPa | 0 mm | 1.79 m/s, 251° | - | - |
| 1777974258 | 12.22° C | 100% | 0 hPa | 0 mm | 1.79 m/s, 260° | - | - |
| 1777973658 | 11.67° C | 100% | 0 hPa | 0 mm | 2.24 m/s, 257° | - | - |
| 1777973058 | 12.22° C | 100% | 0 hPa | 0 mm | 2.24 m/s, 246° | - | - |
| 1777972458 | 11.67° C | 100% | 0 hPa | 0 mm | 1.79 m/s, 229° | - | - |
| 1777971858 | 12.22° C | 100% | 0 hPa | 0 mm | 2.68 m/s, 232° | - | - |
| 1777971258 | 12.22° C | 100% | 0 hPa | 0 mm | 2.24 m/s, 229° | - | - |
| 1777970658 | 11.67° C | 100% | 0 hPa | 0 mm | 2.24 m/s, 246° | - | - |
| 1777970058 | 12.22° C | 100% | 0 hPa | 0 mm | 2.68 m/s, 222° | - | - |
| 1777969458 | 12.22° C | 100% | 0 hPa | 0 mm | 1.79 m/s, 277° | - | - |
| 1777968858 | 12.22° C | 100% | 0 hPa | 0 mm | 1.79 m/s, 237° | - | - |
| 1777968258 | 11.67° C | 100% | 0 hPa | 0 mm | 1.79 m/s, 248° | - | - |
| 1777967658 | 11.67° C | 100% | 0 hPa | 0 mm | 0.89 m/s, 240° | - | - |
| 1777967058 | 11.67° C | 100% | 0 hPa | 0 mm | 1.34 m/s, 247° | - | - |
| 1777966458 | 11.67° C | 100% | 0 hPa | 0 mm | 2.24 m/s, 241° | - | - |
* Rain latest hour (hover to see other rain measurements)
** Current wind speed in m/s (hover to see current wind gust speed)